Regional Weather Roundup
Issued by NWS

Home | Current Version | Previous Version | Text Only | Print | Product List | Glossary Off
Versions: 1 2 3 4 5 6 7 8 9 10 11 12 13 14 15 16 17 18 19 20 21 22 23 24 25 26 27 28 29 30 31 32 33 34 35 36 37 38 39 40 41 42 43 44 45 46 47 48

000
ASUS45 KCYS 282010
RWRWY

WYOMING REGIONAL WEATHER ROUNDUP
NATIONAL WEATHER SERVICE CHEYENNE WY
200 PM MDT MON JUL 28 2014

NOTE:  "FAIR" INDICATES FEW OR NO CLOUDS BELOW 12,000 FEET
WITH NO SIGNIFICANT WEATHER AND/OR OBSTRUCTIONS TO VISIBILITY.

WYZ001-282100-
YELLOWSTONE NATIONAL PARK

CITY           SKY/WX    TMP DP  RH WIND       PRES   REMARKS
LK YELLOWSTONE   N/A     70  49  47 CALM      30.48F
W YELLOWSTONE  NOT AVBL

$$
WYZ002>013-054>058-071-098>099-282100-
NORTHERN WYOMING

CITY           SKY/WX    TMP DP  RH WIND       PRES   REMARKS
JACKSON        SUNNY     84  43  23 S9        30.34F
CODY           NOT AVBL
GREYBULL       SUNNY     90  40  17 VRB3      30.18F
WORLAND        SUNNY     90  44  20 NW6       30.19F
SHERIDAN       SUNNY     88  49  25 E7        30.25F
BUFFALO        SUNNY     84  47  27 S8G17     30.32F
GILLETTE       SUNNY     85  49  28 SE10      30.28F
HULETT         FAIR      81  48  32 MISG      30.31
NEWCASTLE      FAIR      82  45  26 MISG      30.30

$$
WYZ014>020-022>026-101>103-282100-
CENTRAL WYOMING

CITY           SKY/WX    TMP DP  RH WIND       PRES   REMARKS
BIG PINEY      MOSUNNY   85  35  16 VRB7      30.38F
PINEDALE       CLEAR     81  32  17 SE3       30.39F
DUBOIS         FAIR      79  30  17 SE5       30.41S
LANDER         MOSUNNY   89  40  17 NE10      30.26F
RIVERTON       SUNNY     87  42  20 E10       30.29F
CASPER         SUNNY     88  38  17 SE6       30.29F
DOUGLAS        SUNNY     87  46  24 E8        30.30F

$$
WYZ021-027>030-104>119-282100-
SOUTHERN WYOMING

CITY           SKY/WX    TMP DP  RH WIND       PRES   REMARKS
EVANSTON       PTSUNNY   81  42  25 VRB3      30.37F
FORT BRIDGER   FAIR      85  33  15 NW5       30.38F
ROCK SPRINGS   MOSUNNY   89  29  11 E10       30.33F
DIXON          FAIR      89  33  13 S6        30.35F
RAWLINS        SUNNY     86  27  11 VRB7      30.38F
SARATOGA       FAIR      86  28  12 N6        30.39F
LARAMIE        MOSUNNY   75  47  36 E9        30.42F
CHEYENNE       MOSUNNY   79  51  37 S9G17     30.37F
TORRINGTON     SUNNY     86  58  38 SE12      30.26F
PINE BLUFFS    MOCLDY    86  52  30 E5G16     30.31F

$$



USA.gov is the U.S. government's official web portal to all federal, state and local government web resources and services.